Temp
61 61 61 61 60 60 59 59 58 58 59 59 59 59 59 59 58 58 57 68 65 65 67 68 70 70 70 67 67 65 59 54 55 55 62 66 66 67 65 65 64 66 64 63 63
60 60 60 61 59 59 59 59 58 58 59 59 59 59 58 58 56 54 64 65 65 66 69 68 65 67 66 65 65 64 57 57 62 63 63 65 65 68 65 63 64 62 62 64 63
59 59 59 59 59 59 59 59 58 59 59 59 59 59 58 58 55 64 66 66 66 67 72 72 69 68 63 63 63 60 59 61 64 66 67 66 64 67 63 64 67 63 63 61 61
58 58 58 59 59 58 58 57 58 59 59 59 59 59 58 56 54 67 67 67 66 69 71 69 67 63 61 60 63 58 62 64 67 66 65 63 67 64 62 70 66 68 65 62 60
57 57 58 58 58 58 57 57 57 57 58 58 59 59 54 52 56 67 66 67 67 68 68 66 64 63 59 61 62 58 62 65 66 65 65 65 65 65 62 68 64 62 62 61 62
57 57 57 57 57 57 57 56 56 56 57 57 58 58 51 45 69 67 65 66 67 67 67 67 66 67 63 62 61 64 63 65 65 65 65 63 63 60 71 66 61 59 59 63 63
57 57 57 57 57 57 56 56 56 56 56 57 58 56 47 49 66 66 63 64 67 66 64 67 69 66 65 60 65 63 59 62 64 66 65 65 59 58 69 62 60 59 61 62 64
57 56 56 56 56 56 56 55 55 56 57 57 58 53 44 62 64 61 62 61 64 66 65 67 67 66 64 65 62 58 57 53 61 61 64 65 58 66 64 61 59 59 61 62 63
56 56 56 55 55 55 55 55 55 57 57 57 52 49 44 63 57 65 64 61 62 62 64 71 66 62 62 57 53 52 50 50 56 63 63 61 59 65 61 60 59 56 59 61 61
56 56 56 55 55 54 54 55 56 56 56 56 55 44 52 56 63 66 64 64 62 59 59 60 60 56 55 52 45 48 48 50 52 59 59 58 59 65 63 60 60 60 58 57 58
56 56 56 55 55 54 51 50 48 47 48 46 47 47 52 59 64 63 63 62 63 58 52 55 51 47 53 55 55 54 52 51 56 59 57 57 58 63 66 58 58 59 59 59 58
56 55 55 55 55 54 50 46 48 48 38 48 47 49 55 57 49 58 65 56 54 51 54 50 47 54 56 55 54 54 51 51 55 59 57 58 57 64 64 64 62 61 60 61 62
55 55 55 54 54 50 47 48 54 52 39 45 49 48 50 54 47 51 60 58 53 49 50 49 52 57 55 52 50 51 50 51 51 54 59 55 54 59 64 61 60 61 64 64 63
54 54 54 54 49 48 45 53 54 51 34 40 44 49 54 55 47 58 62 59 53 50 51 51 58 54 52 51 53 47 55 53 52 49 45 56 44 55 62 63 61 61 60 62 63
54 54 54 54 47 45 51 54 54 49 26 47 47 61 57 50 53 53 62 57 50 50 51 48 50 51 50 51 54 51 57 54 53 50 48 51 47 52 56 59 65 68 62 63 64
53 53 53 51 48 51 52 52 49 34 25 43 50 48 48 50 52 55 54 59 58 51 52 51 57 56 56 57 56 58 54 53 50 48 39 48 48 50 57 60 64 67 67 63 63
53 53 51 52 45 51 50 46 32 26 44 40 43 47 47 47 48 50 47 46 44 40 41 48 51 56 58 52 55 55 49 40 37 37 38 50 46 53 59 62 65 68 70 65 63
52 52 50 51 51 50 47 38 24 36 36 46 46 46 43 47 47 47 45 42 49 47 43 40 39 52 56 55 50 50 50 41 34 36 42 47 43 53 63 66 66 66 68 66 62
51 48 46 50 51 49 40 26 32 37 42 41 44 40 40 45 45 45 43 43 47 49 42 40 41 54 56 58 58 48 44 54 42 40 39 46 51 59 64 62 65 66 65 65 63
45 44 45 50 50 45 34 30 35 42 43 43 37 41 36 39 40 41 42 48 47 51 52 47 40 52 55 58 59 55 56 42 45 35 34 42 44 51 57 61 63 62 65 65 64
43 38 47 51 48 39 29 33 38 44 44 39 37 36 37 37 40 39 41 47 48 48 52 49 45 45 51 49 48 50 48 49 50 45 39 37 44 57 60 63 60 61 64 64 63
41 32 47 49 35 34 32 37 43 41 45 42 42 39 37 39 38 40 39 44 51 50 42 46 42 39 45 54 56 56 51 51 43 40 43 44 47 61 61 63 60 63 64 65 65
37 37 47 47 29 31 35 35 41 39 40 39 39 41 42 38 35 40 42 50 50 50 44 45 40 35 40 49 54 50 52 54 52 47 44 39 46 61 60 62 64 63 66 67 65
37 30 37 41 39 37 34 33 33 43 40 41 40 42 39 37 41 37 39 46 48 49 48 48 39 35 34 39 46 45 50 52 51 42 45 45 50 57 61 62 65 63 65 67 65
36 31 38 30 33 35 38 38 34 33 41 42 38 37 37 32 34 35 41 43 48 50 48 46 37 40 40 43 44 45 48 52 49 50 45 49 51 57 60 63 65 63 65 66 66
32 34 36 36 39 35 37 36 36 36 37 35 35 38 39 33 36 35 40 41 39 45 43 46 34 36 36 43 44 41 48 50 51 51 50 50 50 61 64 65 63 64 62 66 66
41 41 40 37 35 33 33 37 37 41 41 43 40 38 33 37 43 44 45 44 43 39 38 38 35 34 33 39 37 36 45 49 52 53 53 47 55 62 60 59 62 63 61 63 65
MSLP
1021.08 1020.94 1020.67 1020.51 1020.16 1019.89 1019.57 1019.36 1019.23 1018.93 1018.77 1018.46 1017.99 1017.48 1016.53 1016.00 1015.25 1014.51 1013.88 1011.46 1011.34 1011.19 1011.40 1012.10 1012.22 1011.99 1012.15 1012.30 1012.58 1012.77 1012.55 1012.05 1011.97 1011.55 1010.56 1010.55 1010.40 1010.25 1010.35 1010.39 1010.65 1010.62 1010.71 1011.23 1012.11
1021.07 1020.96 1020.63 1020.45 1020.23 1019.90 1019.55 1019.19 1018.95 1018.81 1018.38 1018.23 1017.80 1017.40 1016.62 1015.73 1014.84 1013.62 1011.71 1011.31 1010.95 1011.04 1011.15 1011.47 1011.89 1011.91 1012.06 1012.17 1012.37 1012.23 1012.00 1011.30 1011.07 1010.74 1010.22 1010.26 1010.39 1010.16 1010.32 1010.29 1010.19 1010.57 1010.94 1011.37 1011.98
1020.64 1020.81 1020.58 1020.40 1020.11 1019.85 1019.64 1019.16 1018.92 1018.40 1018.20 1017.96 1017.69 1017.07 1016.62 1015.87 1014.49 1012.13 1011.18 1010.53 1010.81 1010.99 1010.68 1011.03 1011.27 1011.45 1011.73 1011.96 1012.03 1011.98 1011.16 1010.81 1010.30 1010.28 1010.04 1009.93 1010.07 1010.01 1010.06 1009.59 1009.05 1009.56 1009.96 1010.95 1011.59
1020.59 1020.51 1020.41 1020.22 1019.96 1019.56 1019.28 1019.09 1018.76 1018.25 1018.10 1017.83 1017.76 1016.95 1016.37 1015.84 1013.73 1011.27 1011.13 1010.92 1011.17 1011.17 1010.71 1010.86 1011.27 1011.25 1011.29 1011.33 1011.37 1011.51 1010.75 1010.39 1009.73 1009.83 1009.95 1009.86 1009.59 1009.60 1009.70 1008.68 1008.84 1009.26 1009.78 1010.50 1011.21
1020.59 1020.25 1020.22 1020.08 1019.83 1019.33 1019.03 1018.73 1018.42 1018.14 1017.85 1017.84 1017.45 1017.39 1016.29 1015.59 1012.57 1011.15 1010.96 1010.97 1011.27 1011.34 1010.87 1010.71 1010.86 1010.95 1010.76 1010.70 1010.95 1010.84 1010.28 1009.88 1009.53 1009.70 1009.60 1009.70 1009.31 1009.23 1008.64 1008.17 1008.97 1009.46 1009.91 1010.24 1010.77
1020.43 1020.25 1020.12 1019.95 1019.55 1019.29 1018.72 1018.54 1018.02 1017.76 1017.43 1017.38 1017.37 1017.66 1016.80 1014.90 1011.22 1011.00 1011.40 1011.09 1011.12 1011.42 1011.05 1010.73 1010.43 1010.41 1010.47 1010.33 1010.34 1009.89 1009.84 1009.49 1009.16 1009.07 1009.18 1009.17 1009.08 1009.30 1007.18 1008.09 1008.93 1009.58 1009.91 1010.02 1010.40
1020.31 1019.89 1019.93 1019.86 1019.62 1019.11 1018.59 1018.00 1017.51 1017.47 1016.88 1016.75 1016.93 1017.39 1016.93 1012.83 1010.98 1011.27 1011.81 1011.47 1011.12 1011.23 1011.16 1010.79 1010.37 1010.33 1010.28 1010.17 1009.86 1009.74 1009.64 1009.15 1008.62 1008.21 1008.26 1008.37 1008.81 1008.28 1007.35 1008.28 1008.81 1009.49 1009.72 1009.96 1010.17
1019.98 1019.65 1019.62 1019.64 1019.31 1018.90 1018.21 1017.72 1017.12 1016.47 1015.96 1015.90 1016.37 1017.02 1015.20 1011.72 1011.20 1010.93 1011.21 1011.11 1011.01 1010.89 1011.22 1010.86 1010.63 1010.35 1010.25 1010.13 1009.92 1009.85 1009.71 1008.95 1008.13 1007.93 1007.70 1007.93 1007.18 1006.83 1007.57 1008.09 1008.60 1009.10 1009.46 1009.75 1010.08
1019.78 1019.52 1019.41 1019.24 1018.97 1018.76 1017.92 1017.15 1016.21 1015.71 1015.16 1015.38 1016.11 1016.12 1013.72 1011.25 1010.88 1009.87 1010.44 1010.65 1010.31 1010.61 1010.80 1010.50 1010.63 1010.27 1010.35 1010.10 1010.09 1009.87 1009.05 1008.69 1008.05 1007.56 1007.61 1007.65 1006.85 1006.53 1007.46 1007.73 1008.23 1008.89 1009.07 1009.48 1009.89
1019.39 1019.24 1019.15 1018.95 1018.74 1018.38 1017.48 1016.47 1015.39 1015.52 1015.31 1015.53 1015.85 1016.04 1012.53 1010.75 1009.90 1009.32 1009.95 1010.17 1009.82 1010.22 1010.75 1010.66 1010.40 1010.14 1010.24 1009.75 1008.51 1008.78 1009.05 1008.60 1007.87 1007.71 1007.53 1007.36 1006.74 1006.16 1006.94 1007.35 1007.54 1008.07 1008.70 1009.13 1009.46
1019.04 1019.11 1018.78 1018.91 1018.54 1017.93 1017.50 1016.13 1015.93 1015.98 1015.48 1014.79 1014.46 1013.23 1011.69 1010.80 1009.85 1009.30 1009.36 1009.82 1009.64 1009.78 1009.98 1010.17 1009.97 1009.17 1007.78 1008.76 1008.88 1008.73 1008.54 1008.10 1007.45 1007.60 1007.36 1006.69 1006.51 1005.87 1005.99 1006.73 1007.11 1007.53 1007.88 1008.36 1008.69
1018.99 1018.86 1018.86 1018.66 1017.97 1017.87 1017.61 1017.46 1017.13 1017.68 1015.43 1013.90 1012.95 1012.40 1011.52 1011.60 1010.84 1009.52 1009.25 1009.59 1009.32 1009.22 1009.35 1009.98 1008.77 1008.46 1009.00 1009.15 1009.04 1008.85 1008.48 1007.54 1007.60 1007.48 1007.37 1006.29 1005.71 1005.28 1005.28 1005.34 1005.75 1006.36 1006.79 1007.27 1007.99
1018.96 1018.79 1018.53 1018.24 1017.85 1017.81 1017.70 1017.34 1016.98 1017.15 1016.05 1012.54 1011.62 1011.33 1010.82 1010.91 1010.01 1009.23 1009.03 1008.69 1008.73 1008.72 1008.51 1008.24 1007.88 1008.16 1008.53 1008.84 1008.94 1008.46 1008.26 1007.42 1007.85 1007.66 1007.10 1006.45 1005.40 1004.73 1004.44 1004.76 1005.02 1005.54 1005.75 1006.44 1006.81
1018.53 1018.35 1018.20 1018.20 1018.29 1017.76 1017.53 1017.22 1016.92 1017.01 1015.61 1011.98 1010.88 1009.98 1009.82 1009.62 1009.23 1008.09 1008.14 1008.42 1008.25 1007.80 1008.19 1008.15 1007.50 1007.57 1007.84 1007.85 1008.11 1007.87 1007.49 1007.98 1007.91 1008.07 1007.08 1006.58 1005.18 1004.44 1003.93 1003.86 1003.95 1004.53 1004.88 1005.31 1005.95
1018.18 1017.95 1017.92 1017.79 1017.95 1017.69 1017.24 1017.04 1016.79 1016.67 1014.44 1010.74 1009.69 1008.80 1009.10 1009.15 1008.13 1007.72 1007.62 1007.99 1007.71 1007.88 1007.91 1007.24 1006.91 1007.01 1007.23 1007.06 1007.57 1007.21 1007.40 1007.43 1007.48 1007.64 1007.46 1006.44 1005.97 1003.74 1003.68 1003.03 1002.63 1002.75 1003.51 1004.19 1004.93
1017.79 1017.56 1017.51 1017.41 1017.72 1017.23 1017.12 1016.94 1016.82 1016.34 1012.68 1009.89 1008.91 1008.83 1009.14 1008.51 1007.87 1007.59 1007.63 1007.98 1008.00 1008.15 1007.69 1007.31 1006.71 1006.63 1006.26 1006.44 1006.86 1007.04 1007.27 1007.54 1007.82 1007.89 1006.92 1005.63 1005.41 1002.54 1002.49 1001.98 1001.62 1001.79 1002.24 1003.23 1004.24
1017.27 1017.19 1017.35 1017.08 1017.07 1016.84 1017.04 1017.21 1016.81 1014.58 1011.19 1010.16 1009.34 1008.98 1008.57 1008.11 1007.93 1007.66 1007.91 1008.19 1007.98 1008.02 1007.47 1007.14 1006.52 1006.39 1005.99 1006.48 1006.78 1006.97 1007.10 1007.49 1007.73 1007.46 1005.53 1004.91 1004.69 1002.05 1001.66 1001.42 1001.11 1001.11 1001.27 1002.27 1003.39
1016.83 1016.83 1016.72 1016.53 1016.73 1016.82 1017.10 1017.18 1015.32 1012.55 1011.47 1010.36 1009.51 1009.07 1008.66 1008.27 1008.12 1007.91 1008.07 1008.10 1007.85 1007.52 1007.04 1006.58 1006.20 1005.72 1005.30 1005.19 1005.69 1006.05 1006.44 1006.72 1006.60 1006.28 1005.06 1004.90 1003.17 1001.47 1000.76 1000.50 1000.70 1000.91 1001.17 1001.68 1002.70
1016.57 1016.54 1016.34 1015.84 1016.22 1016.63 1017.08 1016.24 1013.38 1012.23 1011.53 1010.77 1009.80 1009.40 1009.26 1009.01 1008.74 1008.30 1008.27 1008.13 1007.83 1007.50 1007.33 1006.45 1005.82 1004.63 1004.20 1004.16 1004.58 1005.53 1005.56 1006.07 1006.30 1006.11 1005.35 1003.81 1002.71 1001.43 1000.38 1000.39 1000.38 1000.38 1000.69 1000.81 1001.75
1016.42 1016.08 1015.20 1014.93 1015.52 1016.24 1016.23 1014.37 1013.35 1012.32 1011.76 1011.11 1010.50 1010.24 1010.15 1009.87 1009.39 1009.01 1008.62 1008.37 1008.11 1007.57 1007.02 1006.61 1006.02 1004.70 1004.10 1004.31 1004.05 1004.10 1004.68 1005.85 1006.00 1005.29 1004.58 1003.24 1002.52 1000.95 1000.22 1000.04 1000.18 1000.03 1000.05 1000.05 1001.06
1016.06 1015.20 1013.68 1014.15 1015.36 1015.35 1013.87 1013.41 1013.11 1012.37 1012.17 1011.89 1011.47 1011.21 1011.00 1010.77 1010.41 1009.95 1009.26 1008.86 1008.45 1007.75 1007.16 1007.12 1006.65 1005.53 1004.70 1004.07 1003.56 1004.12 1004.01 1004.14 1004.24 1004.01 1003.23 1002.54 1001.59 1000.36 999.76 999.71 1000.08 999.74 999.85 999.84 1000.41
1015.18 1014.28 1013.31 1013.87 1014.55 1013.25 1012.82 1012.68 1012.88 1012.57 1012.26 1012.38 1012.24 1011.88 1011.54 1011.35 1010.88 1010.35 1009.63 1009.09 1008.64 1008.19 1008.31 1008.44 1007.66 1006.47 1005.16 1004.05 1003.71 1003.38 1002.98 1003.35 1003.22 1003.45 1003.07 1002.31 1000.61 1000.01 999.63 999.67 999.85 999.59 999.35 999.63 1000.09
1014.14 1013.67 1013.25 1013.05 1012.65 1012.24 1012.58 1012.57 1012.49 1012.67 1012.45 1012.42 1012.16 1012.03 1011.99 1011.81 1011.52 1010.69 1010.00 1009.17 1008.98 1008.72 1008.85 1009.05 1008.48 1007.24 1005.69 1004.60 1003.59 1003.36 1003.11 1003.02 1003.10 1003.33 1001.80 1001.74 1000.32 999.61 999.58 999.56 999.37 999.49 999.10 999.34 999.94
1013.56 1012.72 1012.82 1011.93 1011.59 1011.51 1012.01 1012.02 1011.93 1012.21 1012.54 1012.48 1012.31 1012.17 1012.26 1012.06 1011.71 1011.19 1010.67 1009.76 1009.38 1009.26 1009.26 1009.08 1009.38 1008.51 1007.35 1005.87 1004.98 1003.38 1002.53 1002.23 1002.19 1002.05 1000.87 1000.22 1000.38 999.70 999.28 999.16 999.04 999.18 999.28 999.25 999.48
1011.45 1010.83 1010.19 1010.40 1010.29 1010.73 1011.09 1010.83 1011.38 1011.76 1012.30 1012.33 1012.41 1012.38 1012.37 1012.29 1012.02 1011.49 1010.99 1010.35 1009.77 1009.21 1009.43 1009.42 1008.82 1008.73 1007.96 1006.99 1005.57 1003.95 1002.85 1001.79 1001.16 1000.75 1000.67 1000.10 999.97 999.48 999.11 999.00 998.79 998.91 999.14 999.16 999.10
1009.91 1009.95 1010.02 1009.51 1009.55 1009.99 1010.05 1009.67 1010.17 1011.16 1011.60 1011.72 1011.76 1011.96 1012.25 1012.15 1011.93 1011.33 1011.14 1010.98 1010.57 1010.03 1010.02 1009.87 1009.41 1009.04 1007.55 1006.32 1005.27 1003.78 1002.23 1001.38 1000.73 1000.42 1000.10 1000.06 999.62 999.26 998.77 998.68 998.56 998.56 998.89 998.91 998.67
1008.99 1009.29 1008.95 1008.86 1008.73 1009.18 1008.68 1008.89 1009.26 1010.19 1010.58 1010.75 1011.28 1011.77 1012.08 1011.41 1011.60 1011.18 1011.21 1011.24 1011.23 1010.96 1010.83 1010.66 1010.14 1009.22 1006.91 1006.06 1005.13 1003.20 1000.51 1000.50 1000.07 1000.00 999.81 999.46 999.12 998.92 998.71 998.35 998.15 998.54 998.63 998.86 998.50
Wind_Speed
13 14 11 11 10 10 10 10 10 12 16 19 21 22 22 21 23 4 8 8 4 5 7 8 4 4 3 4 3 3 2 5 5 7 4 3 4 1 1 3 3 5 3 2 6
14 15 16 15 14 11 9 9 9 11 13 17 19 21 22 21 9 10 11 12 7 12 8 12 8 8 4 4 4 4 5 9 6 5 5 2 4 5 3 3 6 5 5 6 6
9 12 14 15 15 14 14 10 10 10 13 14 17 19 23 19 5 4 11 7 11 12 5 4 7 6 5 3 6 5 9 6 6 11 6 6 5 3 5 6 12 9 12 11 9
10 12 13 13 13 14 13 13 13 13 13 14 18 18 23 5 5 1 8 4 4 5 5 6 6 7 5 7 5 5 9 8 5 6 4 4 2 5 8 10 1 7 11 13 11
11 12 14 14 15 15 14 13 13 14 14 16 16 17 7 4 11 2 8 3 3 4 4 5 5 5 7 6 6 6 5 8 10 5 7 3 12 8 13 14 5 8 11 12 11
11 12 14 15 15 17 15 15 13 13 14 14 13 11 3 6 3 4 7 3 2 2 3 5 6 6 4 5 8 5 7 9 7 7 6 8 5 5 16 7 9 11 12 12 13
11 12 13 16 17 18 18 17 15 16 16 14 10 5 7 19 2 5 9 3 3 1 3 3 2 3 4 3 3 3 8 9 10 13 10 9 7 10 8 8 11 11 12 11 12
13 13 13 14 15 18 18 18 19 20 20 15 11 4 11 6 5 11 5 6 11 10 8 9 4 3 3 2 1 2 2 5 1 2 2 8 10 12 3 9 12 12 11 11 13
14 14 13 13 15 17 18 19 23 20 12 6 6 6 13 6 4 9 11 7 4 5 8 2 3 4 3 7 5 3 9 8 9 4 3 7 6 6 3 8 11 11 12 12 13
14 15 14 13 15 14 15 22 17 1 8 8 3 3 7 2 3 2 7 5 3 9 6 5 4 5 4 9 14 9 8 5 9 1 2 4 15 17 7 10 13 14 13 14 14
14 13 13 14 15 12 8 6 4 1 2 6 5 6 5 6 5 2 5 3 4 4 8 6 9 14 27 14 4 7 6 9 6 4 2 9 11 17 8 6 10 12 14 15 15
14 12 13 13 14 8 2 2 5 5 13 14 20 21 18 5 6 5 5 6 6 6 8 5 15 19 5 10 13 9 7 18 11 7 8 9 15 16 12 7 8 15 15 16 13
12 13 13 12 10 3 2 3 3 5 7 8 6 8 8 14 11 11 3 4 6 9 15 14 5 14 12 9 12 16 18 16 15 6 8 7 8 7 2 4 5 10 14 14 17
13 12 11 10 3 1 3 2 5 2 4 7 4 6 5 7 8 12 12 7 5 14 9 12 14 7 16 17 16 17 12 14 13 7 7 2 6 7 11 10 7 10 14 16 17
16 14 11 6 2 2 1 4 5 1 5 1 3 3 5 6 7 3 6 6 19 6 6 6 7 17 11 13 15 14 6 12 16 12 7 11 7 3 3 7 12 8 15 17 18
17 15 12 3 2 4 3 7 2 2 9 2 4 3 4 6 3 2 3 2 4 11 6 4 1 7 10 13 16 3 8 1 1 4 8 13 7 6 7 8 6 7 7 15 17
17 14 9 3 3 1 2 1 2 7 3 2 2 1 5 1 1 3 4 8 5 6 10 9 13 3 3 6 7 7 5 2 3 6 8 8 9 14 5 8 10 12 11 10 16
16 13 6 5 5 4 2 2 10 2 3 3 3 3 2 3 1 3 4 5 6 3 2 10 7 16 9 9 9 15 11 6 7 6 5 6 8 8 10 9 8 9 11 5 14
14 6 3 4 7 4 3 8 5 4 3 5 4 3 3 4 2 4 2 2 2 7 6 4 5 4 7 9 16 7 12 15 4 2 3 4 4 8 9 7 6 8 8 9 13
3 3 8 7 11 3 5 11 6 2 3 4 1 4 2 5 5 5 2 3 4 4 6 3 4 6 4 7 12 9 12 7 8 8 11 4 3 7 2 5 7 9 11 5 10
4 5 4 13 8 6 13 9 6 7 2 4 3 3 3 3 3 1 2 1 6 7 6 4 1 4 3 6 13 9 10 4 6 8 8 4 5 8 12 6 7 9 8 3 10
3 7 4 12 11 3 9 10 5 1 3 5 1 1 2 2 1 2 3 1 4 2 6 8 3 6 11 3 2 12 18 18 7 6 5 6 10 2 7 5 5 8 6 0 4
5 6 5 11 12 16 2 6 13 5 5 4 8 5 2 1 3 2 4 3 5 7 5 7 4 3 3 10 5 7 7 14 17 5 14 8 3 2 4 6 4 7 7 5 4
4 6 5 10 5 15 17 6 7 12 7 2 1 2 3 2 4 3 3 4 7 9 7 8 4 6 5 8 11 6 8 10 17 11 14 17 9 4 4 5 8 7 7 8 4
7 6 6 8 15 11 15 11 15 10 12 11 6 6 3 2 2 6 8 10 9 14 7 4 8 10 16 19 21 21 15 14 16 17 12 7 16 10 7 8 7 4 4 7 7
6 4 2 5 9 20 21 19 19 16 12 12 10 10 14 15 16 14 8 4 4 4 6 5 3 3 11 15 19 22 21 20 15 11 8 5 8 8 9 8 7 12 7 9 10
7 3 3 8 7 10 10 18 20 14 14 14 16 9 11 20 16 17 11 11 10 10 9 5 2 3 7 10 19 13 21 18 17 13 10 13 10 8 8 7 8 8 6 11 12
Wind_Direction
353 340 331 328 330 319 317 325 329 338 336 337 334 331 329 326 320 326 252 232 201 174 133 127 147 137 111 130 133 155 172 227 230 188 214 207 312 232 32 265 225 214 217 118 123
338 331 329 330 334 311 309 316 321 327 330 331 329 328 325 330 313 276 258 275 219 167 129 159 164 145 157 160 164 193 206 215 216 208 243 211 275 289 268 230 240 237 201 145 152
336 333 334 328 323 328 325 303 305 317 323 324 325 330 323 325 302 262 334 296 197 195 158 159 137 153 171 148 177 183 236 218 228 227 245 292 259 215 222 259 236 219 200 178 180
316 318 320 323 323 319 317 326 324 320 315 319 322 330 323 292 293 138 355 25 205 211 138 147 148 161 171 192 177 214 239 224 238 210 203 239 275 253 220 258 87 220 177 169 184
309 310 313 313 317 317 316 316 318 318 320 315 318 330 349 318 252 23 47 76 121 186 201 166 164 166 189 190 165 223 243 240 242 236 248 224 249 258 245 245 135 140 160 173 184
309 309 308 308 308 307 311 310 313 312 313 304 309 328 284 262 277 123 25 36 103 239 233 168 202 211 206 203 199 201 235 258 274 256 245 233 249 178 263 197 156 159 177 182 193
301 304 306 309 309 304 306 305 305 300 294 289 286 294 254 241 328 310 321 278 182 103 247 245 229 198 165 198 216 242 276 289 255 255 242 188 223 225 270 162 172 180 182 190 202
306 304 302 301 302 301 303 304 302 294 291 279 254 203 253 256 282 272 245 258 233 232 226 268 311 210 198 242 14 241 217 270 321 165 233 204 254 260 191 190 192 186 193 203 210
302 297 292 292 294 300 304 306 296 302 309 202 150 173 260 274 219 260 202 239 161 177 193 232 175 203 146 218 250 227 252 239 288 223 202 209 264 250 164 202 208 194 200 211 215
307 299 291 294 291 305 317 299 298 14 70 117 172 234 252 256 282 159 175 247 163 131 104 199 189 182 195 186 217 202 232 231 250 148 130 269 272 286 223 204 213 205 198 209 212
305 306 306 295 294 322 331 334 7 315 12 221 208 264 274 318 278 194 158 178 150 149 177 200 194 193 217 211 207 198 216 241 231 211 293 259 265 282 293 213 212 209 205 207 213
298 303 301 300 304 334 353 337 85 297 298 243 245 250 258 343 307 268 180 188 179 198 145 152 224 220 172 197 217 228 237 251 284 273 217 293 297 290 274 249 206 204 205 210 206
296 299 302 303 318 350 290 245 20 342 260 281 217 240 232 196 236 232 224 188 197 189 194 204 206 195 197 201 208 230 234 252 254 321 275 281 270 258 270 260 202 211 211 210 205
293 293 291 296 318 261 263 299 325 245 308 270 231 256 190 184 237 211 217 220 234 209 187 225 224 189 210 217 202 235 228 248 254 267 261 319 290 276 284 279 240 207 199 209 207
292 288 281 237 246 253 327 305 310 248 298 113 173 161 157 190 308 171 182 184 232 204 167 208 192 208 203 211 190 239 202 214 234 236 278 266 249 242 258 266 262 235 205 205 206
288 289 288 285 193 243 284 330 331 246 242 339 134 174 199 215 283 105 136 229 213 246 268 237 235 180 212 213 184 320 194 111 86 217 244 229 224 259 226 230 255 255 212 197 202
282 287 289 193 233 256 174 235 222 224 333 48 5 322 306 221 209 185 135 185 195 172 217 228 232 193 154 167 190 202 153 202 222 207 245 185 192 253 240 245 240 266 268 183 195
278 283 271 236 168 151 99 181 223 196 280 292 285 293 311 8 286 12 119 173 252 221 168 203 223 196 179 190 179 205 206 199 242 234 260 155 222 238 231 248 247 260 275 176 187
284 278 233 217 174 178 135 212 229 196 296 316 309 58 341 17 5 11 38 209 290 208 218 198 249 237 214 186 182 179 207 205 257 206 283 206 262 268 253 258 263 271 259 225 188
255 246 242 175 162 154 203 219 221 269 357 334 8 43 28 353 34 19 33 337 336 15 224 317 255 221 229 200 228 196 148 164 218 233 244 211 259 238 275 274 293 294 275 238 192
245 237 230 157 155 193 223 207 210 256 353 18 19 332 23 27 11 12 315 62 353 338 29 340 182 300 166 184 197 200 215 204 196 209 235 252 230 219 229 236 278 296 291 246 186
242 243 176 150 211 206 215 201 183 140 202 232 344 258 203 305 353 294 272 275 4 352 18 19 304 232 258 234 222 232 217 221 225 180 238 258 232 213 235 231 251 286 308 44 219
233 238 212 182 218 227 119 194 205 195 220 190 208 199 197 243 317 264 267 315 37 40 40 11 6 303 251 279 248 233 211 225 237 259 230 228 235 235 233 264 249 282 310 323 156
234 210 205 203 215 232 208 198 187 202 241 67 334 139 153 206 221 284 312 304 345 324 161 130 243 269 273 305 319 235 211 209 206 225 236 239 236 236 246 253 290 283 283 294 253
189 232 192 193 206 211 211 197 203 197 208 210 238 226 163 214 252 240 254 285 297 282 165 227 252 261 262 273 284 270 268 231 210 225 215 218 227 221 239 252 272 275 261 280 263
192 207 166 243 193 199 208 213 207 193 177 213 221 208 224 243 240 266 266 302 301 319 8 332 287 283 273 269 269 260 255 250 242 231 241 225 250 248 255 267 268 276 255 260 266
195 185 196 192 184 190 203 200 203 196 213 212 205 205 228 237 247 253 260 264 252 275 289 276 250 277 274 320 308 237 238 236 240 239 237 242 238 227 232 250 276 291 315 272 256